Skip Page Navigation
NASA JPL Caltech
NASA Logo - Jet Propulsion Laboratory + View the NASA Portal
+ Near-Earth Object (NEO) Program
Search JPL
JPL Home Earth Solar System Stars & Galaxies Technology
JPL Solar System Dynamics
BODIES ORBITS EPHEMERIDES TOOLS PHYSICAL DATA DISCOVERY FAQ SITE MAP
JPL Small-Body Database Browser
Search: [ help ]  
5867 (1988 RE)
Classification: Mars-crossing Asteroid          SPK-ID: 2005867
Ephemeris | Orbit Diagram | Orbital Elements | Physical Parameters | Discovery Circumstances ]

[ show orbit diagram ]
Orbital Elements at Epoch 2457000.5 (2014-Dec-09.0) TDB
Reference: JPL 3 (heliocentric ecliptic J2000)
 Element Value Uncertainty (1-sigma)   Units 
e .2522538088573325 7.863e-08  
a 1.821146818936877 8.7753e-09 AU
q 1.361755597371635 1.4299e-07 AU
i 35.06942702852626 1.2059e-05 deg
node 202.1632000840061 1.4399e-05 deg
peri 105.5901085839392 2.7452e-05 deg
M 278.6227462067013 1.7516e-05 deg
tp 2457203.416047934817
(2015-Jun-29.91604793)
4.3935e-05 JED
period 897.6682531224662
2.46
6.4882e-06
1.776e-08
d
yr
n .4010390238796673 2.8987e-09 deg/d
Q 2.280538040502119 1.0989e-08 AU
  Orbit Determination Parameters
   # obs. used (total)      504  
   data-arc span      12406 days (33.97 yr)  
   first obs. used      1980-01-22  
   last obs. used      2014-01-09  
   planetary ephem.      DE431  
   SB-pert. ephem.      SB431-BIG16  
   condition code      0  
   fit RMS      .58491  
   data source      ORB  
   producer      Otto Matic  
   solution date      2014-Jun-09 18:16:40  

Additional Information
 Earth MOID = .541532 AU 
 T_jup = 3.794 
[ show covariance matrix ]

Ephemeris | Orbit Diagram | Orbital Elements | Physical Parameters | Discovery Circumstances ]

Physical Parameter Table
Parameter Symbol Value Units Sigma Reference Notes
absolute magnitude H 15.1 mag n/a MPO234875  

5867 (1988 RE)          Discovered 1988-Sep-11 by Phinney, J. at Palomar (675)
Reference: DISCOVERY.DBLast Updated: 2003-08-29
Ephemeris | Orbit Diagram | Orbital Elements | Physical Parameters | Discovery Circumstances ]
ABOUT SSD CREDITS/AWARDS PRIVACY/COPYRIGHT GLOSSARY LINKS
FirstGov 2014-Nov-29 02:26 UT
(server date/time)  
NASA Home Page
Site Manager:   Donald K. Yeomans
Webmaster  Alan B. Chamberlin